Location: Danville Conservation Area
(38.8674°N, 91.5143°W)
Time: 23:49:09
(UTC-06:00)

Envisat - Pass Details

Date: 03 December 2021
Orbit: 764 x 766 km, 98.2° (Epoch: 23 January)

Event Time Altitude Azimuth Distance (km) Brightness Sun altitude
Rises 05:11:09 0° 11° (N) 3,240 6.3 -22.1°
Reaches altitude 10° 05:13:28 10° 11° (N) 2,309 5.5 -21.7°
Maximum altitude 05:18:33 83° 285° (WNW) 776 2.9 -20.7°
Drops below altitude 10° 05:23:37 10° 197° (SSW) 2,292 5.4 -19.8°
Sets 05:25:54 0° 197° (SSW) 3,214 6.2 -19.3°
